Regional Weather Roundup
Issued by NWS

Home | Current Version | Previous Version | Text Only | Print | Product List | Glossary Off
Versions: 1 2 3 4 5 6 7 8 9 10 11 12 13 14 15 16 17 18 19 20 21 22 23 24 25 26 27

000
ASUS45 KTFX 230710
RWRMT
MONTANA REGIONAL WEATHER ROUNDUP
NATIONAL WEATHER SERVICE GREAT FALLS MT
1200 AM MST THU FEB 23 2017

NOTE: "FAIR" INDICATES FEW OR NO CLOUDS BELOW 12000 FEET WITH NO
SIGNIFICANT WEATHER AND/OR OBSTRUCTIONS TO VISIBILITY.

MTZ001>007-043-230800-
WEST OF THE DIVIDE

CITY           SKY/WX    TMP DP  RH WIND       PRES   REMARKS
KALISPELL      PTCLDY    21  18  88 W5        29.95R
MISSOULA       CLOUDY    29  26  89 SE6       29.93R WCI  23
BUTTE          CLOUDY    23  20  88 CALM      29.81S
MULLAN PASS    FOG       20  18  92 N5        29.84S VSB 3/4
ANACONDA         N/A     28  19  69 N9        29.83S WCI  20
DEER LODGE       N/A     30  21  69 N14       29.87S WCI  20
EUREKA           N/A     23  19  86 CALM      29.99S
HAMILTON         N/A     30  25  80 N3        29.89S
LIBBY            N/A     25  21  86 CALM      29.98S
PLAINS           N/A     31  25  78 CALM      29.97F
RONAN            N/A     25  21  84 CALM      29.96S
$$

MTZ008-052>055-230800-
SOUTHWEST MONTANA

CITY           SKY/WX    TMP DP  RH WIND       PRES   REMARKS
BOZEMAN        FLURRIES  28  24  85 E3        29.83F
DILLON         CLOUDY    28  24  85 NE12      29.78R WCI  18
W YELLOWSTONE  CLOUDY    10   9  92 CALM      29.74F
ENNIS          PTCLDY    18  14  86 S5        29.82S
THREE FORKS      N/A     27  17  65 CALM      29.85S
TWIN BRIDGES     N/A     28  22  78 N12       29.80S WCI  18
$$

MTZ009-010-012-014-046-048-049-054-230800-
EAST SLOPES AND CENTRAL MONTANA

CITY           SKY/WX    TMP DP  RH WIND       PRES   REMARKS
CUT BANK       CLOUDY    24  23  96 NE16      29.96S FOG     WCI  11
GREAT FALLS    CLOUDY    29  25  85 NW8       29.94S WCI  21
MALMSTROM AFB  CLOUDY    30  28  93 N7        29.95S WCI  23
HELENA         CLOUDY    31  25  78 NW8       29.88S WCI  23
AUGUSTA        FLURRIES  27  26  96 N8        29.92S WCI  18
BOWMANS CRNR   FLURRIES  26  24  93 NE7       29.90S WCI  18
CHOTEAU          N/A     28  27  93 N6        29.96F WCI  22
CONRAD           N/A     28  27  96 NW2       29.98S
POWER          CLOUDY    27  27  98 N8        29.94S WCI  19
RAYNESFORD     FLURRIES  28  27  94 NW3       29.93S
ULM            LGT RAIN  30  26  84 MISG      29.94F
$$

MTZ011-013-016-021-045-047-050-051-230800-
NORTH CENTRAL MONTANA

CITY           SKY/WX    TMP DP  RH WIND       PRES   REMARKS
HAVRE          LGT SNOW  30  29  96 NE8       29.99S FOG     WCI  22
LEWISTOWN      CLOUDY    27  23  85 E6        29.89F WCI  20
N BAR RANCH    MIX PCPN  25  25 100 CALM      29.91S VSB 1
CHINOOK          N/A     30  30 100 N5        30.01R
DENTON         FLURRIES  27  26  98 NE10      29.88S WCI  17
FORT BENTON      N/A     30  28  93 MISG      29.99R
GEYSER         FLURRIES  28  27  96 N3        29.91R
GRASS RANGE    FLURRIES  27  26  96 CALM      29.89S
JUDITH GAP     FLURRIES  25  24  96 N7        29.87F WCI  18
ROY            FLURRIES  27  26  97 MISG      29.92S
STANFORD       MOCLDY    26  24  93 NW12      29.89S WCI  15
WINIFRED       FLURRIES  26  25  96 E14       29.90F WCI  14
$$

MTZ017>020-022>027-061-062-230800-
NORTHEAST MONTANA

CITY           SKY/WX    TMP DP  RH WIND       PRES   REMARKS
GLASGOW        CLOUDY    24  22  91 N3        29.99S
JORDAN           N/A     23  20  88 NE6       29.95F WCI  16
SIDNEY         CLOUDY    27  26  96 NW5       30.01F
WOLF POINT     CLOUDY    25  23  92 CALM      30.01S
PLENTYWOOD       N/A     30  25  80 CALM      29.99S
POPLAR           N/A     27  25  93 N3        30.01F
$$

MTZ028>42-056>058-230800-
SOUTHCENTRAL AND SOUTHEAST MONTANA

CITY           SKY/WX    TMP DP  RH WIND       PRES   REMARKS
BAKER          CLOUDY    26  23  88 NE10      29.93F WCI  16
BILLINGS       CLOUDY    30  28  92 NE7       29.89R WCI  23
LIVINGSTON     FLURRIES  29  26  89 E12       29.83S WCI  19
MILES CITY     CLOUDY    29  23  78 NE9       29.95S WCI  20
BIG TIMBER     CLOUDY    28  28 100 NE3       29.88F
FORSYTH          N/A     30  27  86 CALM      29.94R
HARLOWTON      LGT SNOW  27  26  96 NE6       29.88S WCI  21
LAUREL           N/A     28  25  89 CALM      29.88R
$$

REGIONAL REPORTS...DAKOTAS

CITY           SKY/WX    TMP DP  RH WIND       PRES   REMARKS
WILLISTON      CLOUDY    27  25  92 CALM      30.00F
MINOT          CLOUDY    32  27  81 SW5       29.98R
DICKINSON      MOCLDY    24  21  88 N5        29.93F
BEACH            N/A    N/A N/A N/A MISG        N/A
CROSBY         CLOUDY    32  30  93 W8        30.01S WCI  25
TIOGA          CLOUDY    27  27 100 W5        30.00S
WATFORD CITY   LGT SNOW  27  27 100 CALM      30.00S
BISMARCK       CLOUDY    29  24  82 NW3       30.00S
GRAND FORKS    CLOUDY    29  21  72 N8        29.98R WCI  21
FARGO          CLEAR     30  27  88 N13       29.96R WCI  20
BUFFALO SD       N/A     29  27  92 E10       29.86S WCI  20
RAPID CITY     CLOUDY    31  26  82 NE8       29.91R WCI  23
$$

REGIONAL REPORTS...WYOMING/IDAHO/WASHINGTON

CITY           SKY/WX    TMP DP  RH WIND       PRES   REMARKS
GILLETTE       CLOUDY    30  26  85 N10       29.83F WCI  21
SHERIDAN       CLOUDY    31  26  82 VRB6      29.87R WCI  25
BUFFALO WY     CLOUDY    30  26  85 N7        29.82F WCI  23
CODY           CLOUDY    28  24  85 N9        29.79F WCI  19
YELLOWSTONE LA   N/A     -1  -4  87 CALM      29.72F
IDAHO FALLS    CLOUDY    30  27  88 N9        29.68F WCI  22
SALMON         CLOUDY    34  23  64 SW3       29.78S
BOISE          LGT SNOW  32  28  85 NW15      29.82F FOG     WCI  22
SPOKANE        PTCLDY    24  22  91 W7        30.01S WCI  16
$$

REGIONAL REPORTS...ALBERTA

CITY           SKY/WX    TMP DP  RH WIND       PRES   REMARKS
EDMONTON       CLOUDY    23  14  68 W5        30.08R
CALGARY        LGT SNOW  23  21  93 VRB2      30.02S
LETHBRIDGE     CLOUDY    25 N/A N/A NE7       30.03R WCI  17
MEDICINE HAT   CLOUDY    25  23  93 NE3       30.07S
WATERTON GATE    N/A     21  19  93 N6          N/A  WCI  14
MILK RIVER       N/A     23  23 100 NE12        N/A  WCI  12
$$

REGIONAL REPORTS...SASKATCHEWAN

CITY           SKY/WX    TMP DP  RH WIND       PRES   REMARKS
SWIFT CURRENT  LGT SNOW  21  21 100 N14       30.00S WCI   8
REGINA         CLOUDY    25  19  80 N18G24    30.03R WCI  11
SASKATOON      PTCLDY    21  18  86 SW5       30.06F
CYPRESS HILLS    N/A     18  16  93 N7          N/A  WCI   8
VAL MARIE        N/A     28  25  86 SW1         N/A
ASSINIBOIA       N/A     18  16  93 W3          N/A
$$




USA.gov is the U.S. government's official web portal to all federal, state and local government web resources and services.